EHI
0 0 0 0 0 0 0 0 0 0 0 0 0 0 0 0 0 0 0 0 0 0 0 0 0 0 0 0 0 0 0 0 0 0 0 0 0 0
0 0 0 0 0 0 0 0 0 0 0 0 0 0 0 0 0 0 0 0 0 0 0 0 0 0 0 0 0 0 0 0 0 0 0 0 0 0
0 0 0 0 0 0 0 0 0 0 0 0 0 0 0 0 0 0 0 0 0 0 0 0 0 0 0 0 0 0 0 0 0 0 0 0 0 0
0 0 0 0 0 0 0 0 0 0 0 0 0 0 0 0 0 0 0 0 0 0 0 0 0 0 0 0 0 0 0 0 0 0 0 0 0 0
0 0 0 0 0 0 0 0 0 0 0 0 0 0 0 0 0 0 0 0 0 0 0 0 0 0 0 0 0 0 0 0 0 0 0 0 0 0
0 0 0 0 0 0 0 0 0 0 0 0 0 0 0 0 0 0 0 0 0 0 0 0 0 0 0 0 0 0 0 0 0 0 0 0 0 0
0 0 0 0 0 0 0 0 0 0 0 0 0 0 0 0 0 0 0 0 0 0 0 0 0 0 0 0 0 0 0 0 0 0 0 0 0 0
0 0 0 0 0 0 0 0 0 0 0 0 0 0 0 0 0 0 0 0 0 0 0 0 0 0 0 0 0 0 0 0 0 0 0 0 0 0
0 0 0 0 0 0 0 0 0 0 0 0 0 0 0 0 0 0 0 0 0 0 0 0 0 0 0 0 0 0 0 0 0 0 0 0 0 0
0 0 0 0 0 0 0 0 0 0 0 0 0 0 0 0 0 0 0 0 0 0 0 0 0 0 0 0 0 0 0 0 0 0 0 0 0 0
0 0 0 0 0 0 0 0 0 0 0 0 0 0 0 0 0 0 0 0 0 0 0 0 0 0 0 0 0 0 0 0 0 0 0 0 0 0
0 0 0 0 0 0 0 0 0 0 0 0 0 0 0 0 0 0 0 0 0 0 0 0 0 0 0 0 0 0 0 0 0 0 0 0 0 0
0 0 0 0 0 0 0 0 0 0 0 0 0 0 0 0 0 0 0 0 0 0 0 0 0 0 0 0 0 0 0 0 0 0 0 0 0 0
0 0 0 0 0 0 0 0 0 0 0 0 0 0 0 0 0 0 0 0 0 0 0 0 0 0 0 0 0 0 0 0 0 0 0 0 0 0
0 0 0 0 0 0 0 0 0 0 0 0 0 0 0 0 0 0 0 0 0 0 0 0 0 0 0 0 0 0 0 0 0 0 0 0 0 0
0 0 0 0 0 0 0 0 0 0 0 0 0 0 0 0 0 0 0 0 0 0 0 0 0 0 0 0 0 0 0 0 0 0 0 0 0 0
0 0 0 0 0 0 0 0 0 0 0 0 0 0 0 0 0 0 0 0 0 0 0 0 0 0 0 0 0 0 0 0 0 0 0 0 0 0
0 0 0 0 0 0 0 0 0 0 0 0 0 0 0 0 0 0 0 0 0 0 0 0 0 0 0 0 0 0 0 0 0 0 0 0 0 0
0 0 0 0 0 0 0 0 0 0 0 0 0 0 0 0 0 0 0 0 0 0 0 0 0 0 0 0 0 0 0 0 0 0 0 0 0 0
0 0 0 0 0 0 0 0 0 0 0 0 0 0 0 0 0 0 0 0 0 0 0 0 0 0 0 0 0 0 0 0 0 0 0 0 0 0
0 0 0 0 0 0 0 0 0 0 0 0 0 0 0 0 0 0 0 0 0 0 0 0 0 0 0 0 0 0 0 0 0 0 0 0 0 0
0 0 0 0 0 0 0 0 0 0 0 0 0 0 0 0 0 0 0 0 0 0 0 0 0 0 0 0 0 0 0 0 0 0 0 0 0 0
0 0 0 0 0 0 0 0 0 0 0 0 0 0 0 0 0 0 0 0 0 0 0 0 0 0 0 0 0 0 0 0 0 0 0 0 0 0
Wind_Speed
1 1 1 1 1 2 3 4 4 2 1 2 1 1 0 0 1 1 1 3 4 4 4 5 6 6 7 8 8 9 9 9 9 9 9 9 8 8
1 1 1 1 1 1 2 2 2 4 2 2 2 1 1 1 1 1 1 2 2 3 3 3 4 5 6 6 7 8 8 9 9 9 9 9 8 8
1 1 1 1 1 1 1 1 2 3 3 1 1 1 1 1 1 1 0 1 1 2 2 3 3 4 5 5 6 7 8 8 8 8 9 9 9 8
2 1 1 1 1 1 1 2 2 2 3 3 1 1 2 2 1 1 0 0 0 1 1 2 2 3 4 4 5 5 6 7 7 7 8 8 8 8
3 3 3 2 2 1 1 2 2 2 2 3 2 1 1 1 1 0 0 1 0 1 1 1 1 2 2 3 4 4 5 5 6 7 7 8 8 8
3 3 3 3 4 3 2 2 2 2 2 2 2 1 1 1 1 1 0 1 1 1 1 1 1 2 2 2 2 3 4 4 5 5 6 7 7 7
1 2 2 4 5 4 2 3 3 3 2 2 2 1 1 2 2 2 1 0 1 0 0 1 1 1 2 2 2 2 2 3 3 4 4 5 5 6
2 1 1 2 4 4 4 5 6 5 4 3 2 3 4 3 2 2 2 1 1 1 1 1 0 1 2 2 2 2 1 2 2 2 3 4 4 4
3 2 1 1 2 2 3 3 3 5 6 5 5 5 5 5 4 3 3 3 3 2 1 1 1 2 2 2 2 1 1 1 2 2 2 3 3 4
3 3 3 2 2 3 2 1 1 2 4 4 4 5 4 4 5 5 4 2 0 1 2 1 1 2 2 2 2 1 1 1 1 2 2 3 3 3
2 2 3 3 4 3 3 2 1 2 2 3 4 5 5 6 5 3 3 2 1 2 1 2 1 1 1 2 2 1 1 1 1 1 1 2 2 3
1 2 4 4 5 5 4 3 2 2 1 0 1 2 2 4 6 5 5 4 2 2 2 2 1 1 1 2 2 1 1 2 2 2 2 2 1 1
2 2 2 4 5 5 4 3 4 3 1 1 1 0 0 1 2 3 4 4 4 3 3 3 2 1 1 2 2 2 1 1 1 1 2 2 1 0
3 3 3 4 4 5 3 4 4 2 1 1 1 1 1 2 2 2 3 3 3 4 4 4 3 3 2 1 2 2 1 1 1 1 1 2 2 1
3 4 4 5 4 3 4 4 3 2 2 1 2 3 2 2 2 1 1 1 0 1 2 3 4 3 3 3 3 2 1 2 1 1 1 1 1 1
2 2 3 3 3 3 3 2 2 3 3 3 3 2 2 1 2 1 1 1 0 1 1 1 3 4 3 3 3 2 2 2 1 1 1 1 1 2
2 1 1 1 1 1 1 2 2 2 2 2 2 2 2 2 2 2 2 1 1 2 1 1 1 1 1 2 2 2 2 2 2 1 1 1 2 3
4 2 2 3 3 3 3 3 3 3 3 3 3 3 3 3 2 1 2 2 2 2 2 2 1 1 1 2 2 3 2 2 2 2 2 2 3 3
3 4 4 4 4 4 4 4 4 4 3 3 3 3 3 3 3 3 2 2 2 3 3 2 2 2 2 3 3 3 3 2 2 2 2 3 3 4
4 4 4 4 4 4 4 4 4 3 3 3 3 3 3 3 3 3 3 4 3 3 2 2 3 4 4 4 3 3 5 4 3 3 2 2 3 4
5 4 4 4 4 4 4 4 4 4 4 3 3 4 4 3 4 4 4 5 4 3 4 4 4 4 2 1 1 2 3 5 5 4 3 2 2 2
5 5 5 5 5 4 4 4 4 4 4 4 4 3 3 4 4 5 4 4 4 4 4 3 2 2 2 3 4 4 3 2 3 5 5 5 3 4
5 5 5 5 5 4 4 4 5 4 4 4 4 4 4 4 3 4 4 4 3 3 3 2 1 1 2 3 3 3 3 3 2 2 3 5 7 8
Wind_Direction
174 163 156 191 164 167 159 154 150 161 241 251 278 287 283 70 54 73 59 67 61 57 53 51 44 38 35 33 32 30 28 28 29 26 24 26 29 31
182 158 166 185 170 158 165 166 151 152 182 222 224 226 198 149 135 110 106 76 58 59 60 58 46 36 33 31 31 31 29 29 31 29 27 26 28 29
195 170 208 188 174 174 164 159 153 142 154 219 211 188 170 169 92 46 42 20 22 52 48 46 42 35 32 29 27 29 29 28 28 26 27 27 25 27
206 189 226 202 192 195 178 178 176 165 154 168 187 177 192 185 164 167 119 86 11 42 49 41 35 32 28 23 22 25 27 28 27 25 25 25 23 26
197 198 211 183 207 208 187 183 181 158 146 155 178 183 172 159 123 165 103 357 10 78 62 24 8 10 10 17 19 19 21 25 29 27 23 21 22 24
200 200 205 196 199 194 185 184 163 139 140 149 161 169 167 159 129 155 356 339 337 17 30 25 15 351 345 360 13 21 24 27 27 26 21 18 20 21
218 216 211 204 195 185 173 177 159 150 152 159 172 165 181 173 193 187 174 198 315 292 8 346 352 334 321 319 326 348 11 22 23 22 19 15 17 19
201 227 234 201 191 188 180 172 166 166 172 174 187 195 209 201 184 167 154 135 268 250 147 293 7 285 288 279 291 311 327 360 11 15 14 9 11 10
196 198 222 214 174 169 181 174 188 197 186 179 187 204 202 198 177 177 183 186 215 210 142 273 292 270 275 285 273 284 295 331 1 4 354 357 4 8
210 203 195 204 198 169 157 154 213 228 213 201 203 212 208 192 182 182 183 172 201 214 154 206 272 272 295 299 295 274 285 305 325 350 0 4 8 10
228 201 181 188 200 160 148 167 240 283 264 232 224 224 217 194 165 138 141 142 216 250 199 170 222 288 312 300 298 297 282 290 307 323 332 346 5 9
241 224 204 195 192 169 161 169 202 243 257 290 260 254 215 197 187 180 175 171 182 232 210 168 190 146 310 294 298 309 302 298 307 317 321 321 332 16
210 227 227 207 192 188 181 186 204 200 189 181 202 226 160 189 205 204 193 179 185 222 203 167 182 178 188 270 301 291 269 284 297 298 323 330 326 196
209 219 218 208 203 196 200 207 194 161 143 144 176 221 224 232 231 219 212 208 208 215 199 177 183 187 179 220 263 285 300 279 245 252 276 319 321 308
211 218 218 209 203 203 211 208 182 162 166 188 220 234 235 229 216 199 183 168 236 256 208 196 186 184 186 202 217 226 265 286 231 231 264 275 267 271
208 212 216 206 200 211 212 209 197 195 195 211 225 232 228 217 213 197 181 154 119 314 320 218 188 177 194 210 200 220 212 226 253 241 237 271 278 255
164 136 155 185 210 228 233 225 213 212 219 220 222 231 227 218 216 191 179 173 190 223 281 347 58 109 187 186 195 216 213 227 227 217 209 276 275 257
152 179 203 211 218 223 226 235 227 225 226 225 227 219 215 209 212 200 184 186 204 216 215 205 143 69 21 330 221 204 212 229 233 217 204 225 272 272
178 206 212 215 222 223 225 226 233 235 225 223 224 216 215 210 203 206 201 199 214 222 222 202 186 173 206 257 274 227 205 220 211 229 229 222 244 262
211 216 220 221 221 224 226 229 233 232 224 225 223 216 212 209 208 210 207 207 212 216 227 219 209 207 212 224 237 256 224 209 205 222 236 246 262 283
220 225 225 224 226 227 229 228 227 226 225 224 224 218 214 209 216 217 213 215 213 213 222 233 233 217 194 130 234 269 261 232 218 214 209 222 273 287
222 224 226 227 226 226 225 223 226 228 224 225 227 221 215 211 217 217 211 209 215 219 227 233 205 174 182 205 227 247 266 276 254 241 233 210 202 225
222 224 223 223 224 223 219 218 222 228 225 223 222 218 213 214 215 213 211 211 210 211 212 215 207 200 212 211 222 238 250 264 273 278 272 261 251 255